[[{"header":{"parameterUnit":"m.s-1","parameterCategory":1,"la1":30.2991,"la2":30.254,"lo1":-89.0895,"lo2":-89.0444,"dy":0.0017,"dx":0.0017,"nx":28,"ny":28,"refTime":"2025-09-11T03:00:00:Z","depth":0,"parameterNumber":2,"parameterNumberName":"U-component_of_WINDS"},"data":[0,0,0,0,0,0,0,0,0,0,0,0,0,0,0,0,0,0,0,0,0,0,0,0,0,0,0,0,0,0,0,0,0,0,0,0,0,0,0,0,0,0,0,0,0,0,0,0,0,0,0,0,0,0,0,0,0,0,-1.7861,-1.786,0,-1.7784,-1.7783,-1.7782,-1.7733,-1.7732,-1.7732,-1.7732,-1.7653,-1.7651,-1.7649,0,0,0,0,0,0,0,0,0,0,0,0,0,-1.7965,-1.7964,-1.7861,-1.786,-1.7859,-1.7784,-1.7783,-1.7782,-1.7733,-1.7732,-1.7732,-1.7732,-1.7653,-1.7651,-1.7649,0,0,0,0,0,0,0,0,0,0,0,0,0,-1.7907,-1.7963,-1.7861,-1.7825,-1.7821,-1.7784,-1.7783,-1.7782,-1.7733,-1.7732,-1.7732,-1.7732,-1.7654,-1.7651,-1.7649,-1.7641,0,0,-1.764,-1.7639,0,0,0,0,0,0,0,0,-1.7911,-1.7904,-1.7831,-1.7828,-1.7823,-1.7767,-1.7791,-1.7734,-1.7733,-1.7766,-1.7732,-1.7731,-1.7691,-1.7685,-1.7672,-1.7637,-1.7633,-1.764,-1.7638,-1.7637,-1.7636,0,0,0,0,0,0,0,-1.7915,-1.7907,-1.783,-1.783,-1.7825,-1.7813,-1.7805,-1.778,-1.7732,-1.7763,-1.776,-1.7751,-1.7689,-1.7675,-1.767,-1.7632,-1.764,-1.7638,-1.7636,-1.7635,-1.7589,-1.759,0,0,0,0,0,0,-1.7925,-1.791,-1.7833,-1.7828,-1.7867,-1.7812,-1.7802,-1.7786,-1.7732,-1.7724,-1.7752,-1.7749,-1.768,-1.7673,-1.7667,-1.7655,-1.7637,-1.7634,-1.7633,-1.7589,-1.7589,-1.759,0,0,0,0,0,0,-1.7927,-1.7918,-1.7836,-1.7868,-1.7857,-1.7811,-1.7793,-1.7784,-1.777,-1.7724,-1.7715,-1.7746,-1.7679,-1.7671,-1.7648,-1.7652,-1.7633,-1.7631,-1.7588,-1.7589,-1.7589,-1.7631,0,0,0,0,0,0,-1.793,-1.7919,-1.7915,-1.7868,-1.7855,-1.7818,-1.7793,-1.7783,-1.7766,-1.7762,-1.7716,-1.7708,-1.7678,-1.7652,-1.7645,-1.7647,-1.7629,-1.7588,-1.7588,-1.7589,-1.7629,-1.7633,-1.7637,0,0,0,0,0,-1.7934,-1.793,-1.7915,-1.7906,-1.7849,-1.7818,-1.7811,-1.7777,-1.7766,-1.7762,-1.7733,-1.7709,-1.7652,-1.765,-1.7642,-1.7644,-1.7587,-1.7588,-1.7589,-1.7628,-1.7633,-1.7637,0,0,0,0,0,0,-1.7977,-1.7923,-1.7906,-1.7886,-1.7858,-1.781,-1.7804,-1.7783,-1.7756,-1.7753,-1.7712,-1.7702,-1.7684,-1.7661,-1.766,-1.7634,-1.7617,-1.7617,-1.7649,-1.7654,-1.7657,-1.7663,-1.7626,0,0,0,0,0,-1.7985,-1.7964,-1.7917,-1.7905,-1.7891,-1.785,-1.7835,-1.7812,-1.778,-1.7767,-1.7736,-1.7706,-1.7682,-1.7666,-1.7641,-1.7626,-1.7616,-1.7623,-1.7627,-1.763,-1.763,-1.7622,-1.7625,-1.7593,-1.7593,-1.7593,0,0,-1.7999,-1.7967,-1.7956,-1.7912,-1.7887,-1.7867,-1.784,-1.782,-1.7805,-1.7764,-1.7741,-1.7718,-1.7682,-1.7663,-1.7654,-1.7644,-1.7637,-1.7631,-1.7634,-1.7632,-1.7624,-1.7627,-1.763,-1.7594,-1.7593,-1.7593,0,0,-1.8016,-1.7989,-1.7976,-1.7952,-1.7915,-1.7888,-1.7885,-1.7841,-1.7824,-1.7801,-1.7771,-1.7753,-1.7711,-1.7687,-1.7669,-1.768,-1.7658,-1.7673,-1.7692,-1.7685,-1.7687,-1.769,-1.7695,-1.7697,-1.7673,-1.7673,-1.7673,0,-1.8039,-1.8008,-1.7972,-1.7954,-1.7936,-1.79,-1.7887,-1.7865,-1.7822,-1.781,-1.78,-1.7749,-1.7722,-1.7698,-1.7701,-1.7688,-1.7684,-1.7678,-1.769,-1.7692,-1.7693,-1.7697,-1.7699,-1.7675,-1.7675,-1.7675,-1.7675,0,-1.8038,-1.8017,-1.8011,-1.7971,-1.7953,-1.7937,-1.79,-1.7886,-1.7865,-1.7839,-1.7817,-1.7784,-1.7752,-1.7745,-1.7723,-1.7719,-1.7714,-1.7698,-1.768,-1.7699,-1.7702,-1.7704,-1.7678,-1.7678,-1.7677,-1.7676,0,0,-1.8079,-1.8021,-1.8019,-1.8002,-1.7959,-1.7942,-1.7926,-1.7895,-1.7884,-1.7856,-1.7842,-1.7809,-1.7794,-1.7774,-1.775,-1.7744,-1.7756,-1.7728,-1.7726,-1.7735,-1.7751,-1.7764,-1.7767,-1.7741,-1.7742,-1.7742,-1.7755,0,-1.809,-1.8059,-1.8027,-1.8008,-1.7989,-1.7955,-1.7941,-1.7914,-1.789,-1.7871,-1.7845,-1.7822,-1.7804,-1.7792,-1.7784,-1.7756,-1.7759,-1.7755,-1.7729,-1.7728,-1.7739,-1.7768,-1.7782,-1.7795,-1.7756,-1.7756,-1.7756,0,-1.8098,-1.8072,-1.8051,-1.8012,-1.8003,-1.7991,-1.7962,-1.7943,-1.7912,-1.7896,-1.7875,-1.785,-1.7832,-1.7817,-1.7793,-1.7791,-1.7778,-1.7763,-1.7763,-1.776,-1.7743,-1.7767,-1.7799,-1.7801,-1.7757,-1.7757,-1.7757,0,-1.8131,-1.8091,-1.8074,-1.8059,-1.8013,-1.8006,-1.7986,-1.7955,-1.7939,-1.7914,-1.7904,-1.7876,-1.7862,-1.7842,-1.781,-1.7802,-1.779,-1.7772,-1.7777,-1.7778,-1.7775,-1.7776,-1.7807,-1.7767,-1.7767,-1.7767,-1.7767,0,-1.8147,-1.8135,-1.8088,-1.8078,-1.8065,-1.8029,-1.8017,-1.7994,-1.7967,-1.7952,-1.7921,-1.7908,-1.7867,-1.7849,-1.7825,-1.7809,-1.7802,-1.7789,-1.7783,-1.7792,-1.7794,-1.7784,-1.7782,-1.7767,-1.7767,-1.7767,-1.7767,0,-1.8181,-1.8149,-1.8128,-1.8087,-1.8076,-1.8069,-1.8033,-1.8022,-1.7998,-1.7979,-1.7973,-1.7934,-1.7912,-1.7879,-1.7846,-1.783,-1.7819,-1.7808,-1.7829,-1.7826,-1.7833,-1.7833,-1.7859,-1.7861,-1.7819,-1.7819,-1.782,0,-1.8194,-1.8184,-1.8142,-1.8131,-1.8112,-1.8093,-1.8078,-1.8043,-1.8028,-1.7994,-1.7987,-1.7962,-1.7941,-1.7907,-1.7876,-1.7852,-1.7841,-1.7852,-1.7837,-1.7847,-1.7842,-1.7844,-1.7843,-1.7855,-1.7856,-1.7856,-1.7857,0,-1.8219,-1.8205,-1.8183,-1.8158,-1.814,-1.8118,-1.8094,-1.8086,-1.8047,-1.8032,-1.8009,-1.7993,-1.796,-1.7937,-1.7909,-1.7889,-1.7867,-1.7862,-1.7862,-1.7871,-1.7885,-1.7879,-1.784,-1.7861,-1.7861,-1.786,-1.786,-1.786,-1.8243,-1.8234,-1.8204,-1.8182,-1.8161,-1.8141,-1.8129,-1.8104,-1.8084,-1.8055,-1.8036,-1.8015,-1.7986,-1.7946,-1.7928,-1.7911,-1.7901,-1.7901,-1.7901,-1.7902,-1.7906,-1.7887,-1.7905,-1.7905,-1.7905,-1.7905,-1.7905,0,-1.8269,-1.8248,-1.8228,-1.8197,-1.818,-1.8162,-1.8135,-1.8122,-1.8104,-1.8079,-1.8059,-1.8034,-1.8012,-1.798,-1.7956,-1.7949,-1.7938,-1.7944,-1.7944,-1.794,-1.7915,-1.7918,-1.7953,-1.7953,-1.7953,-1.7953,-1.7953,-1.7953,-1.828,-1.8264,-1.8246,-1.822,-1.8199,-1.8179,-1.8165,-1.8147,-1.8127,-1.81,-1.8082,-1.8062,-1.8035,-1.8008,-1.7988,-1.7979,-1.7972,-1.7981,-1.7969,-1.7946,-1.7942,-1.7938,-1.794,-1.7979,-1.7979,-1.7996,-1.7996,-1.7996]},{"header":{"parameterUnit":"m.s-1","parameterCategory":1,"la1":30.2991,"la2":30.254,"lo1":-89.0895,"lo2":-89.0444,"dy":0.0017,"dx":0.0017,"nx":28,"ny":28,"refTime":"2025-09-11T03:00:00:Z","depth":0,"parameterNumber":3,"parameterNumberName":"V-component_of_WINDS"},"data":[0,0,0,0,0,0,0,0,0,0,0,0,0,0,0,0,0,0,0,0,0,0,0,0,0,0,0,0,0,0,0,0,0,0,0,0,0,0,0,0,0,0,0,0,0,0,0,0,0,0,0,0,0,0,0,0,0,0,0.3234,0.3234,0,0.3278,0.3278,0.3279,0.3285,0.3284,0.3284,0.3284,0.3326,0.3327,0.3329,0,0,0,0,0,0,0,0,0,0,0,0,0,0.3151,0.3153,0.3234,0.3234,0.3235,0.3278,0.3278,0.3279,0.3285,0.3284,0.3284,0.3283,0.3325,0.3327,0.3329,0,0,0,0,0,0,0,0,0,0,0,0,0,0.319,0.3153,0.3234,0.3243,0.3244,0.3278,0.3278,0.3279,0.3285,0.3284,0.3284,0.3283,0.3325,0.3327,0.3329,0.3355,0,0,0.3336,0.3337,0,0,0,0,0,0,0,0,0.3188,0.3193,0.3241,0.3243,0.3244,0.3275,0.3265,0.3304,0.3285,0.327,0.3284,0.3283,0.3309,0.3313,0.3322,0.3357,0.3359,0.3336,0.3338,0.3338,0.3339,0,0,0,0,0,0,0,0.3185,0.3191,0.3251,0.3242,0.3244,0.3244,0.3249,0.3272,0.3292,0.3271,0.3271,0.3277,0.331,0.332,0.3323,0.3359,0.3336,0.3338,0.3339,0.334,0.3415,0.3415,0,0,0,0,0,0,0.3181,0.3189,0.325,0.3252,0.3214,0.3246,0.3251,0.3266,0.3292,0.3295,0.3277,0.3277,0.3317,0.3321,0.3325,0.3355,0.3338,0.3341,0.3342,0.3414,0.3415,0.3415,0,0,0,0,0,0,0.318,0.3187,0.3248,0.3221,0.3229,0.3248,0.3264,0.3267,0.3277,0.3297,0.33,0.3284,0.3316,0.3322,0.3347,0.3356,0.3342,0.3344,0.3413,0.3414,0.3415,0.3417,0,0,0,0,0,0,0.3177,0.3186,0.3197,0.3221,0.323,0.3271,0.3265,0.3268,0.3281,0.3281,0.3304,0.3307,0.3316,0.3344,0.3349,0.3359,0.3345,0.3412,0.3414,0.3415,0.3416,0.3417,0.3419,0,0,0,0,0,0.3174,0.3196,0.3198,0.3205,0.3245,0.3271,0.3276,0.3287,0.3282,0.3293,0.3305,0.3307,0.3355,0.3346,0.3353,0.3363,0.3412,0.3413,0.3415,0.3415,0.3417,0.3419,0,0,0,0,0,0,0.3172,0.3199,0.3202,0.3232,0.3249,0.3272,0.3286,0.3289,0.3308,0.3307,0.3318,0.3323,0.3348,0.3358,0.3348,0.3388,0.3383,0.3385,0.3381,0.3383,0.3384,0.3381,0.3347,0,0,0,0,0,0.3175,0.3196,0.3218,0.3242,0.3251,0.3267,0.3279,0.3286,0.3304,0.3311,0.3325,0.3341,0.336,0.3372,0.3391,0.3417,0.3421,0.3428,0.3429,0.343,0.3432,0.3445,0.3448,0.342,0.342,0.342,0,0,0.3182,0.3199,0.3211,0.3242,0.3257,0.3276,0.3273,0.3294,0.3308,0.3314,0.3338,0.3349,0.3368,0.3394,0.3406,0.3403,0.3441,0.3432,0.3433,0.3434,0.3447,0.3449,0.3452,0.3421,0.3421,0.3421,0,0,0.3204,0.322,0.3241,0.3255,0.3276,0.3287,0.3291,0.3314,0.3321,0.3346,0.335,0.3366,0.3399,0.3411,0.3422,0.3446,0.3448,0.3452,0.346,0.3472,0.3474,0.3476,0.3483,0.3485,0.3454,0.3454,0.3454,0,0.3209,0.3239,0.3251,0.3272,0.3284,0.329,0.331,0.3323,0.3349,0.3357,0.3354,0.3394,0.3407,0.3435,0.344,0.3449,0.3454,0.3449,0.3473,0.3475,0.3477,0.3484,0.3486,0.3454,0.3454,0.3454,0.3454,0,0.3243,0.3264,0.3279,0.3304,0.3318,0.3338,0.3351,0.3364,0.3369,0.3379,0.3403,0.3419,0.3439,0.3447,0.3452,0.3474,0.3472,0.3471,0.3465,0.348,0.3486,0.3489,0.3454,0.3454,0.3454,0.3454,0,0,0.3265,0.3296,0.3301,0.3311,0.3335,0.335,0.337,0.3391,0.34,0.3418,0.3433,0.3459,0.3458,0.347,0.3477,0.3487,0.3503,0.3485,0.3485,0.3486,0.3526,0.3526,0.3529,0.3504,0.3505,0.3505,0.3524,0,0.3288,0.3325,0.3335,0.3364,0.3382,0.3388,0.3404,0.342,0.3429,0.3444,0.3454,0.3472,0.347,0.3477,0.3488,0.3499,0.3511,0.3498,0.3517,0.3518,0.3511,0.3533,0.3533,0.355,0.3527,0.3528,0.3528,0,0.332,0.3338,0.337,0.3389,0.3397,0.3412,0.3431,0.3446,0.3463,0.3468,0.3481,0.3486,0.3505,0.3498,0.3523,0.3514,0.3522,0.3528,0.3529,0.3531,0.3523,0.3533,0.3556,0.3558,0.3532,0.3532,0.3532,0,0.3331,0.3363,0.3385,0.3394,0.3418,0.3428,0.3438,0.3454,0.3465,0.3481,0.3488,0.3506,0.3515,0.3528,0.3537,0.3532,0.356,0.3555,0.3564,0.3564,0.357,0.3569,0.3593,0.3577,0.3577,0.3577,0.3577,0,0.3355,0.3373,0.339,0.3404,0.3424,0.3435,0.3454,0.3464,0.3478,0.3493,0.3498,0.3512,0.3523,0.3537,0.3544,0.3563,0.3567,0.3571,0.3573,0.357,0.3569,0.3575,0.3574,0.3577,0.3577,0.3577,0.3577,0,0.3369,0.3382,0.3406,0.3426,0.3432,0.3446,0.3462,0.3474,0.3484,0.3502,0.3507,0.3521,0.3538,0.3548,0.3569,0.3574,0.3594,0.3595,0.3588,0.3589,0.3597,0.3595,0.3624,0.3628,0.3611,0.3611,0.3611,0,0.3383,0.3398,0.3419,0.3429,0.3439,0.3456,0.3468,0.3478,0.3489,0.3508,0.3518,0.3536,0.355,0.3577,0.3588,0.3604,0.3605,0.3614,0.3607,0.3604,0.3603,0.3602,0.3603,0.3615,0.3615,0.3615,0.3615,0,0.3406,0.3411,0.3427,0.3445,0.3459,0.3474,0.3488,0.3496,0.3509,0.3521,0.3538,0.355,0.3571,0.3588,0.3604,0.3613,0.3616,0.3617,0.362,0.3617,0.3612,0.3613,0.359,0.3616,0.3616,0.3616,0.3616,0.3616,0.3419,0.3432,0.3448,0.3466,0.3478,0.3491,0.3503,0.3514,0.3529,0.3548,0.3553,0.3571,0.3585,0.3608,0.3617,0.363,0.3629,0.3633,0.3634,0.3634,0.3634,0.3611,0.3633,0.3633,0.3633,0.3633,0.3633,0,0.3441,0.3451,0.3468,0.3488,0.3501,0.3503,0.3519,0.3529,0.3545,0.3559,0.3573,0.3592,0.3608,0.362,0.3636,0.3644,0.3646,0.3648,0.3647,0.3648,0.3635,0.3631,0.3646,0.3646,0.3646,0.3646,0.3646,0.3646,0.3453,0.3474,0.348,0.3506,0.3516,0.3534,0.3543,0.3554,0.3565,0.3587,0.36,0.3608,0.3621,0.3637,0.3651,0.3654,0.3659,0.3661,0.3664,0.3651,0.365,0.3648,0.3644,0.3662,0.3662,0.3676,0.3676,0.3676]}]]